owner,sensor,date,latitude,longitude,vertical_datum,wind_speed,wind_to_direction,wind_speed_of_gust,qcFlag 
WAVCIS,ioos:station:WAVCIS:CSI06:1,2015-02-01T00:00:00Z,28.8667,-90.4833,10.0,10.3,90.0,11.8,'11111222,11111222,11111222' 
WAVCIS,ioos:station:WAVCIS:CSI06:1,2015-02-01T01:00:00Z,28.8667,-90.4833,10.0,10.8,100.0,12.4,'11111222,11111222,11111222' 
WAVCIS,ioos:station:WAVCIS:CSI06:1,2015-02-01T02:00:00Z,28.8667,-90.4833,10.0,11.3,100.0,13.9,'11111222,11111222,11111222' 
WAVCIS,ioos:station:WAVCIS:CSI06:1,2015-02-01T03:00:00Z,28.8667,-90.4833,10.0,11.8,100.0,13.4,'11111222,11111222,11111222' 
WAVCIS,ioos:station:WAVCIS:CSI06:1,2015-02-01T04:00:00Z,28.8667,-90.4833,10.0,11.3,100.0,12.9,'11111222,11111222,11111222' 
WAVCIS,ioos:station:WAVCIS:CSI06:1,2015-02-01T05:00:00Z,28.8667,-90.4833,10.0,10.3,110.0,11.8,'11111222,11111222,11111222' 
WAVCIS,ioos:station:WAVCIS:CSI06:1,2015-02-01T06:00:00Z,28.8667,-90.4833,10.0,10.8,110.0,11.3,'11111222,11111222,11111222' 
WAVCIS,ioos:station:WAVCIS:CSI06:1,2015-02-01T07:00:00Z,28.8667,-90.4833,10.0,8.8,130.0,9.8,'11111222,11111222,11111222' 
WAVCIS,ioos:station:WAVCIS:CSI06:1,2015-02-01T08:00:00Z,28.8667,-90.4833,10.0,8.8,130.0,9.8,'11111222,11111222,11111222' 
WAVCIS,ioos:station:WAVCIS:CSI06:1,2015-02-01T09:00:00Z,28.8667,-90.4833,10.0,8.8,140.0,9.8,'11111222,11111222,11111222' 
WAVCIS,ioos:station:WAVCIS:CSI06:1,2015-02-01T10:00:00Z,28.8667,-90.4833,10.0,9.8,140.0,10.3,'11111222,11111222,11111222' 
WAVCIS,ioos:station:WAVCIS:CSI06:1,2015-02-01T11:00:00Z,28.8667,-90.4833,10.0,3.6,230.0,7.7,'11111222,11111222,11111222' 
WAVCIS,ioos:station:WAVCIS:CSI06:1,2015-02-01T13:00:00Z,28.8667,-90.4833,10.0,2.1,230.0,3.6,'11111222,11111222,11111222' 
WAVCIS,ioos:station:WAVCIS:CSI06:1,2015-02-01T14:00:00Z,28.8667,-90.4833,10.0,4.6,180.0,5.1,'11111222,11111222,11111222' 
WAVCIS,ioos:station:WAVCIS:CSI06:1,2015-02-01T15:00:00Z,28.8667,-90.4833,10.0,5.1,160.0,5.1,'11111222,11111222,11111222' 
WAVCIS,ioos:station:WAVCIS:CSI06:1,2015-02-01T16:00:00Z,28.8667,-90.4833,10.0,1.5,200.0,2.6,'11111222,11111222,11111222' 
WAVCIS,ioos:station:WAVCIS:CSI06:1,2015-02-01T17:00:00Z,28.8667,-90.4833,10.0,1.0,210.0,3.1,'11111222,11111222,11111222' 
WAVCIS,ioos:station:WAVCIS:CSI06:1,2015-02-01T18:00:00Z,28.8667,-90.4833,10.0,2.1,240.0,3.6,'11111222,11111222,11111222' 
WAVCIS,ioos:station:WAVCIS:CSI06:1,2015-02-01T19:00:00Z,28.8667,-90.4833,10.0,3.1,270.0,3.6,'11111222,11111222,11111222' 
WAVCIS,ioos:station:WAVCIS:CSI06:1,2015-02-01T20:00:00Z,28.8667,-90.4833,10.0,3.1,270.0,3.6,'11111222,11111222,11111222' 
WAVCIS,ioos:station:WAVCIS:CSI06:1,2015-02-01T21:00:00Z,28.8667,-90.4833,10.0,2.1,230.0,3.1,'11111222,11111222,11111222' 
WAVCIS,ioos:station:WAVCIS:CSI06:1,2015-02-01T22:00:00Z,28.8667,-90.4833,10.0,2.1,250.0,3.6,'11111222,11111222,11111222' 
WAVCIS,ioos:station:WAVCIS:CSI06:1,2015-02-01T23:00:00Z,28.8667,-90.4833,10.0,1.5,240.0,3.6,'11111222,11111222,11111222' 
WAVCIS,ioos:station:WAVCIS:CSI06:1,2015-02-02T00:00:00Z,28.8667,-90.4833,10.0,6.2,250.0,7.2,'11111222,11111222,11111222' 
WAVCIS,ioos:station:WAVCIS:CSI06:1,2015-02-02T01:00:00Z,28.8667,-90.4833,10.0,6.7,250.0,8.2,'11111222,11111222,11111222' 
WAVCIS,ioos:station:WAVCIS:CSI06:1,2015-02-02T02:00:00Z,28.8667,-90.4833,10.0,5.7,240.0,8.2,'11111222,11111222,11111222' 
WAVCIS,ioos:station:WAVCIS:CSI06:1,2015-02-02T03:00:00Z,28.8667,-90.4833,10.0,8.2,240.0,9.3,'11111222,11111222,11111222' 
WAVCIS,ioos:station:WAVCIS:CSI06:1,2015-02-02T04:00:00Z,28.8667,-90.4833,10.0,8.8,240.0,9.8,'11111222,11111222,11111222' 
WAVCIS,ioos:station:WAVCIS:CSI06:1,2015-02-02T05:00:00Z,28.8667,-90.4833,10.0,9.3,250.0,10.8,'11111222,11111222,11111222' 
WAVCIS,ioos:station:WAVCIS:CSI06:1,2015-02-02T06:00:00Z,28.8667,-90.4833,10.0,11.3,280.0,13.4,'11111222,11111222,11111222' 
WAVCIS,ioos:station:WAVCIS:CSI06:1,2015-02-02T07:00:00Z,28.8667,-90.4833,10.0,10.3,350.0,14.9,'11111222,11111222,11111222' 
WAVCIS,ioos:station:WAVCIS:CSI06:1,2015-02-02T08:00:00Z,28.8667,-90.4833,10.0,13.9,340.0,16.5,'11111222,11111222,11111222' 
WAVCIS,ioos:station:WAVCIS:CSI06:1,2015-02-02T09:00:00Z,28.8667,-90.4833,10.0,7.7,360.0,11.8,'11111222,11144222,11111222' 
WAVCIS,ioos:station:WAVCIS:CSI06:1,2015-02-02T10:00:00Z,28.8667,-90.4833,10.0,6.2,350.0,8.8,'11111222,11111222,11111222' 
WAVCIS,ioos:station:WAVCIS:CSI06:1,2015-02-02T11:00:00Z,28.8667,-90.4833,10.0,10.8,330.0,12.9,'11111222,11111222,11111222' 
WAVCIS,ioos:station:WAVCIS:CSI06:1,2015-02-02T12:00:00Z,28.8667,-90.4833,10.0,15.4,330.0,18.0,'11111222,11111222,11111222' 
WAVCIS,ioos:station:WAVCIS:CSI06:1,2015-02-02T13:00:00Z,28.8667,-90.4833,10.0,13.4,340.0,16.5,'11111222,11111222,11111222' 
WAVCIS,ioos:station:WAVCIS:CSI06:1,2015-02-02T14:00:00Z,28.8667,-90.4833,10.0,14.9,340.0,17.5,'11111222,11111222,11111222' 
WAVCIS,ioos:station:WAVCIS:CSI06:1,2015-02-02T15:00:00Z,28.8667,-90.4833,10.0,10.3,350.0,14.4,'11111222,11111222,11111222' 
WAVCIS,ioos:station:WAVCIS:CSI06:1,2015-02-02T16:00:00Z,28.8667,-90.4833,10.0,6.7,10.0,11.3,'11111222,11111222,11111222' 
WAVCIS,ioos:station:WAVCIS:CSI06:1,2015-02-02T17:00:00Z,28.8667,-90.4833,10.0,6.7,10.0,9.8,'11111222,11111222,11111222' 
WAVCIS,ioos:station:WAVCIS:CSI06:1,2015-02-02T18:00:00Z,28.8667,-90.4833,10.0,7.7,20.0,10.8,'11111222,11111222,11111222' 
WAVCIS,ioos:station:WAVCIS:CSI06:1,2015-02-02T19:00:00Z,28.8667,-90.4833,10.0,8.2,10.0,11.3,'11111222,11111222,11111222' 
WAVCIS,ioos:station:WAVCIS:CSI06:1,2015-02-02T20:00:00Z,28.8667,-90.4833,10.0,8.2,20.0,12.4,'11111222,11111222,11111222' 
WAVCIS,ioos:station:WAVCIS:CSI06:1,2015-02-02T21:00:00Z,28.8667,-90.4833,10.0,7.7,20.0,10.8,'11111222,11111222,11111222' 
WAVCIS,ioos:station:WAVCIS:CSI06:1,2015-02-02T22:00:00Z,28.8667,-90.4833,10.0,7.7,20.0,10.8,'11111222,11111222,11111222' 
WAVCIS,ioos:station:WAVCIS:CSI06:1,2015-02-02T23:00:00Z,28.8667,-90.4833,10.0,5.1,20.0,8.2,'11111222,11111222,11111222' 
WAVCIS,ioos:station:WAVCIS:CSI06:1,2015-02-03T00:00:00Z,28.8667,-90.4833,10.0,6.2,20.0,8.8,'11111222,11111222,11111222' 
WAVCIS,ioos:station:WAVCIS:CSI06:1,2015-02-03T01:00:00Z,28.8667,-90.4833,10.0,6.7,30.0,9.3,'11111222,11111222,11111222' 
WAVCIS,ioos:station:WAVCIS:CSI06:1,2015-02-03T02:00:00Z,28.8667,-90.4833,10.0,6.7,20.0,9.3,'11111222,11111222,11111222' 
WAVCIS,ioos:station:WAVCIS:CSI06:1,2015-02-03T03:00:00Z,28.8667,-90.4833,10.0,6.2,20.0,9.3,'11111222,11111222,11111222' 
WAVCIS,ioos:station:WAVCIS:CSI06:1,2015-02-03T04:00:00Z,28.8667,-90.4833,10.0,7.7,20.0,9.8,'11111222,11111222,11111222' 
WAVCIS,ioos:station:WAVCIS:CSI06:1,2015-02-03T05:00:00Z,28.8667,-90.4833,10.0,7.7,30.0,10.3,'11111222,11111222,11111222' 
WAVCIS,ioos:station:WAVCIS:CSI06:1,2015-02-03T06:00:00Z,28.8667,-90.4833,10.0,7.2,40.0,9.8,'11111222,11111222,11111222' 
WAVCIS,ioos:station:WAVCIS:CSI06:1,2015-02-03T07:00:00Z,28.8667,-90.4833,10.0,7.7,40.0,9.8,'11111222,11111222,11111222' 
WAVCIS,ioos:station:WAVCIS:CSI06:1,2015-02-03T08:00:00Z,28.8667,-90.4833,10.0,7.7,40.0,10.8,'11111222,11111222,11111222' 
WAVCIS,ioos:station:WAVCIS:CSI06:1,2015-02-03T09:00:00Z,28.8667,-90.4833,10.0,9.3,50.0,11.8,'11111222,11111222,11111222' 
WAVCIS,ioos:station:WAVCIS:CSI06:1,2015-02-03T10:00:00Z,28.8667,-90.4833,10.0,8.8,40.0,11.8,'11111222,11111222,11111222' 
WAVCIS,ioos:station:WAVCIS:CSI06:1,2015-02-03T11:00:00Z,28.8667,-90.4833,10.0,8.8,40.0,11.3,'11111222,11111222,11111222' 
WAVCIS,ioos:station:WAVCIS:CSI06:1,2015-02-03T12:00:00Z,28.8667,-90.4833,10.0,8.8,40.0,11.8,'11111222,11111222,11111222' 
WAVCIS,ioos:station:WAVCIS:CSI06:1,2015-02-03T13:00:00Z,28.8667,-90.4833,10.0,9.8,50.0,12.4,'11111222,11111222,11111222' 
WAVCIS,ioos:station:WAVCIS:CSI06:1,2015-02-03T14:00:00Z,28.8667,-90.4833,10.0,9.3,60.0,10.8,'11111222,11111222,11111222' 
WAVCIS,ioos:station:WAVCIS:CSI06:1,2015-02-03T15:00:00Z,28.8667,-90.4833,10.0,9.8,60.0,11.8,'11111222,11111222,11111222' 
WAVCIS,ioos:station:WAVCIS:CSI06:1,2015-02-03T16:00:00Z,28.8667,-90.4833,10.0,9.8,70.0,11.3,'11111222,11111222,11111222' 
WAVCIS,ioos:station:WAVCIS:CSI06:1,2015-02-03T17:00:00Z,28.8667,-90.4833,10.0,8.8,80.0,10.3,'11111222,11111222,11111222' 
WAVCIS,ioos:station:WAVCIS:CSI06:1,2015-02-03T18:00:00Z,28.8667,-90.4833,10.0,7.2,80.0,8.8,'11111222,11111222,11111222' 
WAVCIS,ioos:station:WAVCIS:CSI06:1,2015-02-03T19:00:00Z,28.8667,-90.4833,10.0,6.7,70.0,9.3,'11111222,11111222,11111222' 
WAVCIS,ioos:station:WAVCIS:CSI06:1,2015-02-03T20:00:00Z,28.8667,-90.4833,10.0,6.2,40.0,8.2,'11111222,11111222,11111222' 
WAVCIS,ioos:station:WAVCIS:CSI06:1,2015-02-03T21:00:00Z,28.8667,-90.4833,10.0,5.7,50.0,8.2,'11111222,11111222,11111222' 
WAVCIS,ioos:station:WAVCIS:CSI06:1,2015-02-03T22:00:00Z,28.8667,-90.4833,10.0,8.2,50.0,10.3,'11111222,11111222,11111222' 
WAVCIS,ioos:station:WAVCIS:CSI06:1,2015-02-03T23:00:00Z,28.8667,-90.4833,10.0,6.7,50.0,8.8,'11111222,11111222,11111222' 
WAVCIS,ioos:station:WAVCIS:CSI06:1,2015-02-04T00:00:00Z,28.8667,-90.4833,10.0,6.7,40.0,8.2,'11111222,11111222,11111222' 
WAVCIS,ioos:station:WAVCIS:CSI06:1,2015-02-04T01:00:00Z,28.8667,-90.4833,10.0,5.7,40.0,7.7,'11111222,11111222,11111222' 
WAVCIS,ioos:station:WAVCIS:CSI06:1,2015-02-04T02:00:00Z,28.8667,-90.4833,10.0,7.7,40.0,9.3,'11111222,11111222,11111222' 
WAVCIS,ioos:station:WAVCIS:CSI06:1,2015-02-04T03:00:00Z,28.8667,-90.4833,10.0,8.8,40.0,10.8,'11111222,11111222,11111222' 
WAVCIS,ioos:station:WAVCIS:CSI06:1,2015-02-04T04:00:00Z,28.8667,-90.4833,10.0,10.3,50.0,12.4,'11111222,11111222,11111222' 
WAVCIS,ioos:station:WAVCIS:CSI06:1,2015-02-04T05:00:00Z,28.8667,-90.4833,10.0,9.8,60.0,11.3,'11111222,11111222,11111222' 
WAVCIS,ioos:station:WAVCIS:CSI06:1,2015-02-04T06:00:00Z,28.8667,-90.4833,10.0,9.8,60.0,11.8,'11111222,11111222,11111222' 
WAVCIS,ioos:station:WAVCIS:CSI06:1,2015-02-04T07:00:00Z,28.8667,-90.4833,10.0,10.8,70.0,12.4,'11111222,11111222,11111222' 
WAVCIS,ioos:station:WAVCIS:CSI06:1,2015-02-04T08:00:00Z,28.8667,-90.4833,10.0,8.2,70.0,9.8,'11111222,11111222,11111222' 
WAVCIS,ioos:station:WAVCIS:CSI06:1,2015-02-04T09:00:00Z,28.8667,-90.4833,10.0,8.8,60.0,10.3,'11111222,11111222,11111222' 
WAVCIS,ioos:station:WAVCIS:CSI06:1,2015-02-04T10:00:00Z,28.8667,-90.4833,10.0,9.3,60.0,10.8,'11111222,11111222,11111222' 
WAVCIS,ioos:station:WAVCIS:CSI06:1,2015-02-04T11:00:00Z,28.8667,-90.4833,10.0,8.8,90.0,10.8,'11111222,11111222,11111222' 
WAVCIS,ioos:station:WAVCIS:CSI06:1,2015-02-04T12:00:00Z,28.8667,-90.4833,10.0,9.3,70.0,10.8,'11111222,11111222,11111222' 
WAVCIS,ioos:station:WAVCIS:CSI06:1,2015-02-04T13:00:00Z,28.8667,-90.4833,10.0,11.3,50.0,12.9,'11111222,11111222,11111222' 
WAVCIS,ioos:station:WAVCIS:CSI06:1,2015-02-04T14:00:00Z,28.8667,-90.4833,10.0,10.8,60.0,12.4,'11111222,11111222,11111222' 
WAVCIS,ioos:station:WAVCIS:CSI06:1,2015-02-04T15:00:00Z,28.8667,-90.4833,10.0,12.4,60.0,13.4,'11111222,11111222,11111222' 
WAVCIS,ioos:station:WAVCIS:CSI06:1,2015-02-04T16:00:00Z,28.8667,-90.4833,10.0,13.9,60.0,15.4,'11111222,11111222,11111222' 
WAVCIS,ioos:station:WAVCIS:CSI06:1,2015-02-04T17:00:00Z,28.8667,-90.4833,10.0,15.4,50.0,17.0,'11111222,11111222,11111222' 
WAVCIS,ioos:station:WAVCIS:CSI06:1,2015-02-04T18:00:00Z,28.8667,-90.4833,10.0,12.4,50.0,14.4,'11111222,11111222,11111222' 
WAVCIS,ioos:station:WAVCIS:CSI06:1,2015-02-04T19:00:00Z,28.8667,-90.4833,10.0,13.9,50.0,15.4,'11111222,11111222,11111222' 
WAVCIS,ioos:station:WAVCIS:CSI06:1,2015-02-04T20:00:00Z,28.8667,-90.4833,10.0,14.9,40.0,16.5,'11111222,11111222,11111222' 
WAVCIS,ioos:station:WAVCIS:CSI06:1,2015-02-04T21:00:00Z,28.8667,-90.4833,10.0,14.9,50.0,17.0,'11111222,11111222,11111222' 
WAVCIS,ioos:station:WAVCIS:CSI06:1,2015-02-13T14:00:00Z,28.8667,-90.4833,10.0,8.8,40.0,10.3,'11111222,11111222,11111222' 
WAVCIS,ioos:station:WAVCIS:CSI06:1,2015-02-13T15:00:00Z,28.8667,-90.4833,10.0,7.7,40.0,9.8,'11111222,11111222,11111222' 
WAVCIS,ioos:station:WAVCIS:CSI06:1,2015-02-13T16:00:00Z,28.8667,-90.4833,10.0,6.7,40.0,9.3,'11111222,11111222,11111222' 
WAVCIS,ioos:station:WAVCIS:CSI06:1,2015-02-13T17:00:00Z,28.8667,-90.4833,10.0,6.7,50.0,8.8,'11111222,11111222,11111222' 
WAVCIS,ioos:station:WAVCIS:CSI06:1,2015-02-13T18:00:00Z,28.8667,-90.4833,10.0,5.1,50.0,7.2,'11111222,11111222,11111222' 
WAVCIS,ioos:station:WAVCIS:CSI06:1,2015-02-13T19:00:00Z,28.8667,-90.4833,10.0,5.1,40.0,6.2,'11111222,11111222,11111222' 
WAVCIS,ioos:station:WAVCIS:CSI06:1,2015-02-13T20:00:00Z,28.8667,-90.4833,10.0,4.6,40.0,6.7,'11111222,11111222,11111222' 
WAVCIS,ioos:station:WAVCIS:CSI06:1,2015-02-13T21:00:00Z,28.8667,-90.4833,10.0,3.6,50.0,5.1,'11111222,11111222,11111222' 
WAVCIS,ioos:station:WAVCIS:CSI06:1,2015-02-13T22:00:00Z,28.8667,-90.4833,10.0,2.6,50.0,4.6,'11111222,11111222,11111222' 
WAVCIS,ioos:station:WAVCIS:CSI06:1,2015-02-13T23:00:00Z,28.8667,-90.4833,10.0,1.0,90.0,2.1,'11111222,11111222,11111222' 
WAVCIS,ioos:station:WAVCIS:CSI06:1,2015-02-14T00:00:00Z,28.8667,-90.4833,10.0,1.0,50.0,2.1,'11111222,11111222,11111222' 
WAVCIS,ioos:station:WAVCIS:CSI06:1,2015-02-14T01:00:00Z,28.8667,-90.4833,10.0,1.5,80.0,2.6,'11111222,11111222,11111222' 
WAVCIS,ioos:station:WAVCIS:CSI06:1,2015-02-14T02:00:00Z,28.8667,-90.4833,10.0,1.5,70.0,2.1,'11111222,11111222,11111222' 
WAVCIS,ioos:station:WAVCIS:CSI06:1,2015-02-14T03:00:00Z,28.8667,-90.4833,10.0,1.0,70.0,1.5,'11111222,11111222,11111222' 
WAVCIS,ioos:station:WAVCIS:CSI06:1,2015-02-14T04:00:00Z,28.8667,-90.4833,10.0,1.5,170.0,2.1,'11111222,11111222,11111222' 
WAVCIS,ioos:station:WAVCIS:CSI06:1,2015-02-14T05:00:00Z,28.8667,-90.4833,10.0,0.5,60.0,1.0,'11111222,11111222,11111222' 
WAVCIS,ioos:station:WAVCIS:CSI06:1,2015-02-14T06:00:00Z,28.8667,-90.4833,10.0,1.0,40.0,1.5,'11111222,11111222,11111222' 
WAVCIS,ioos:station:WAVCIS:CSI06:1,2015-02-14T07:00:00Z,28.8667,-90.4833,10.0,1.0,30.0,2.1,'11111222,11111222,11111222' 
WAVCIS,ioos:station:WAVCIS:CSI06:1,2015-02-14T08:00:00Z,28.8667,-90.4833,10.0,2.1,290.0,3.1,'11111222,11111222,11111222' 
WAVCIS,ioos:station:WAVCIS:CSI06:1,2015-02-14T09:00:00Z,28.8667,-90.4833,10.0,2.6,310.0,3.1,'11111222,11111222,11111222' 
WAVCIS,ioos:station:WAVCIS:CSI06:1,2015-02-14T10:00:00Z,28.8667,-90.4833,10.0,2.6,320.0,4.1,'11111222,11111222,11111222' 
WAVCIS,ioos:station:WAVCIS:CSI06:1,2015-02-14T11:00:00Z,28.8667,-90.4833,10.0,1.0,280.0,2.1,'11111222,11111222,11111222' 
WAVCIS,ioos:station:WAVCIS:CSI06:1,2015-02-14T12:00:00Z,28.8667,-90.4833,10.0,1.5,260.0,2.6,'11111222,11111222,11111222' 
WAVCIS,ioos:station:WAVCIS:CSI06:1,2015-02-14T13:00:00Z,28.8667,-90.4833,10.0,2.6,270.0,3.6,'11111222,11111222,11111222' 
WAVCIS,ioos:station:WAVCIS:CSI06:1,2015-02-14T14:00:00Z,28.8667,-90.4833,10.0,2.6,270.0,3.1,'11111222,11111222,11111222' 
WAVCIS,ioos:station:WAVCIS:CSI06:1,2015-02-14T15:00:00Z,28.8667,-90.4833,10.0,3.1,270.0,3.6,'11111222,11111222,11111222' 
WAVCIS,ioos:station:WAVCIS:CSI06:1,2015-02-14T16:00:00Z,28.8667,-90.4833,10.0,2.1,260.0,3.1,'11111222,11111222,11111222' 
WAVCIS,ioos:station:WAVCIS:CSI06:1,2015-02-14T17:00:00Z,28.8667,-90.4833,10.0,1.5,240.0,2.6,'11111222,11111222,11111222' 
WAVCIS,ioos:station:WAVCIS:CSI06:1,2015-02-14T18:00:00Z,28.8667,-90.4833,10.0,2.6,260.0,3.1,'11111222,11111222,11111222' 
WAVCIS,ioos:station:WAVCIS:CSI06:1,2015-02-14T19:00:00Z,28.8667,-90.4833,10.0,2.6,240.0,4.1,'11111222,11111222,11111222' 
WAVCIS,ioos:station:WAVCIS:CSI06:1,2015-02-14T20:00:00Z,28.8667,-90.4833,10.0,3.1,260.0,4.6,'11111222,11111222,11111222' 
WAVCIS,ioos:station:WAVCIS:CSI06:1,2015-02-14T21:00:00Z,28.8667,-90.4833,10.0,4.6,250.0,6.2,'11111222,11111222,11111222' 
WAVCIS,ioos:station:WAVCIS:CSI06:1,2015-02-14T22:00:00Z,28.8667,-90.4833,10.0,6.2,260.0,7.2,'11111222,11111222,11111222' 
WAVCIS,ioos:station:WAVCIS:CSI06:1,2015-02-14T23:00:00Z,28.8667,-90.4833,10.0,5.7,260.0,7.7,'11111222,11111222,11111222' 
WAVCIS,ioos:station:WAVCIS:CSI06:1,2015-02-15T00:00:00Z,28.8667,-90.4833,10.0,6.7,260.0,8.2,'11111222,11111222,11111222' 
WAVCIS,ioos:station:WAVCIS:CSI06:1,2015-02-15T01:00:00Z,28.8667,-90.4833,10.0,6.2,260.0,7.7,'11111222,11111222,11111222' 
WAVCIS,ioos:station:WAVCIS:CSI06:1,2015-02-15T02:00:00Z,28.8667,-90.4833,10.0,6.2,260.0,8.2,'11111222,11111222,11111222' 
WAVCIS,ioos:station:WAVCIS:CSI06:1,2015-02-15T03:00:00Z,28.8667,-90.4833,10.0,5.7,260.0,7.2,'11111222,11111222,11111222' 
WAVCIS,ioos:station:WAVCIS:CSI06:1,2015-02-15T04:00:00Z,28.8667,-90.4833,10.0,6.7,260.0,7.7,'11111222,11111222,11111222' 
WAVCIS,ioos:station:WAVCIS:CSI06:1,2015-02-15T05:00:00Z,28.8667,-90.4833,10.0,4.1,260.0,6.2,'11111222,11111222,11111222' 
WAVCIS,ioos:station:WAVCIS:CSI06:1,2015-02-15T06:00:00Z,28.8667,-90.4833,10.0,3.6,260.0,5.1,'11111222,11111222,11111222' 
WAVCIS,ioos:station:WAVCIS:CSI06:1,2015-02-15T07:00:00Z,28.8667,-90.4833,10.0,5.7,260.0,6.7,'11111222,11111222,11111222' 
WAVCIS,ioos:station:WAVCIS:CSI06:1,2015-02-15T08:00:00Z,28.8667,-90.4833,10.0,5.7,270.0,6.7,'11111222,11111222,11111222' 
WAVCIS,ioos:station:WAVCIS:CSI06:1,2015-02-15T09:00:00Z,28.8667,-90.4833,10.0,5.7,270.0,6.7,'11111222,11111222,11111222' 
WAVCIS,ioos:station:WAVCIS:CSI06:1,2015-02-15T10:00:00Z,28.8667,-90.4833,10.0,4.6,280.0,4.6,'11111222,11111222,11111222' 
WAVCIS,ioos:station:WAVCIS:CSI06:1,2015-02-15T11:00:00Z,28.8667,-90.4833,10.0,4.6,270.0,5.1,'11111222,11111222,11111222' 
WAVCIS,ioos:station:WAVCIS:CSI06:1,2015-02-15T12:00:00Z,28.8667,-90.4833,10.0,3.6,300.0,4.1,'11111222,11111222,11111222' 
WAVCIS,ioos:station:WAVCIS:CSI06:1,2015-02-15T13:00:00Z,28.8667,-90.4833,10.0,3.6,300.0,4.1,'11111222,11111222,11111222' 
WAVCIS,ioos:station:WAVCIS:CSI06:1,2015-02-15T14:00:00Z,28.8667,-90.4833,10.0,2.6,280.0,2.6,'11111222,11111222,11111222' 
WAVCIS,ioos:station:WAVCIS:CSI06:1,2015-02-15T15:00:00Z,28.8667,-90.4833,10.0,1.5,260.0,2.6,'11111222,11111222,11111222' 
WAVCIS,ioos:station:WAVCIS:CSI06:1,2015-02-15T16:00:00Z,28.8667,-90.4833,10.0,0.0,0.0,1.0,'11111222,11111222,11111222' 
WAVCIS,ioos:station:WAVCIS:CSI06:1,2015-02-15T17:00:00Z,28.8667,-90.4833,10.0,1.5,200.0,1.5,'11111222,11111222,11111222' 
WAVCIS,ioos:station:WAVCIS:CSI06:1,2015-02-15T18:00:00Z,28.8667,-90.4833,10.0,1.5,180.0,1.5,'11111222,11111222,11111222' 
WAVCIS,ioos:station:WAVCIS:CSI06:1,2015-02-15T19:00:00Z,28.8667,-90.4833,10.0,1.0,120.0,1.0,'11111222,11111222,11111222' 
WAVCIS,ioos:station:WAVCIS:CSI06:1,2015-02-15T20:00:00Z,28.8667,-90.4833,10.0,1.0,80.0,1.5,'11111222,11111222,11111222' 
WAVCIS,ioos:station:WAVCIS:CSI06:1,2015-02-15T21:00:00Z,28.8667,-90.4833,10.0,2.1,110.0,2.1,'11111222,11111222,11111222' 
WAVCIS,ioos:station:WAVCIS:CSI06:1,2015-02-15T22:00:00Z,28.8667,-90.4833,10.0,5.1,80.0,5.1,'11111222,11111222,11111222' 
WAVCIS,ioos:station:WAVCIS:CSI06:1,2015-02-15T23:00:00Z,28.8667,-90.4833,10.0,5.1,100.0,5.7,'11111222,11111222,11111222' 
WAVCIS,ioos:station:WAVCIS:CSI06:1,2015-02-16T00:00:00Z,28.8667,-90.4833,10.0,6.2,100.0,6.7,'11111222,11111222,11111222' 
WAVCIS,ioos:station:WAVCIS:CSI06:1,2015-02-16T01:00:00Z,28.8667,-90.4833,10.0,5.7,90.0,6.7,'11111222,11111222,11111222' 
WAVCIS,ioos:station:WAVCIS:CSI06:1,2015-02-16T02:00:00Z,28.8667,-90.4833,10.0,6.7,100.0,6.7,'11111222,11111222,11111222' 
WAVCIS,ioos:station:WAVCIS:CSI06:1,2015-02-16T03:00:00Z,28.8667,-90.4833,10.0,6.2,90.0,6.7,'11111222,11111222,11111222' 
WAVCIS,ioos:station:WAVCIS:CSI06:1,2015-02-16T04:00:00Z,28.8667,-90.4833,10.0,6.7,90.0,7.2,'11111222,11111222,11111222' 
WAVCIS,ioos:station:WAVCIS:CSI06:1,2015-02-16T05:00:00Z,28.8667,-90.4833,10.0,7.2,100.0,7.7,'11111222,11111222,11111222' 
WAVCIS,ioos:station:WAVCIS:CSI06:1,2015-02-16T06:00:00Z,28.8667,-90.4833,10.0,6.2,100.0,6.7,'11111222,11111222,11111222' 
WAVCIS,ioos:station:WAVCIS:CSI06:1,2015-02-16T07:00:00Z,28.8667,-90.4833,10.0,5.7,100.0,6.2,'11111222,11111222,11111222' 
WAVCIS,ioos:station:WAVCIS:CSI06:1,2015-02-16T08:00:00Z,28.8667,-90.4833,10.0,7.2,120.0,7.7,'11111222,11111222,11111222' 
WAVCIS,ioos:station:WAVCIS:CSI06:1,2015-02-16T09:00:00Z,28.8667,-90.4833,10.0,6.7,170.0,7.2,'11111222,11111222,11111222' 
WAVCIS,ioos:station:WAVCIS:CSI06:1,2015-02-16T10:00:00Z,28.8667,-90.4833,10.0,8.2,190.0,9.3,'11111222,11111222,11111222' 
WAVCIS,ioos:station:WAVCIS:CSI06:1,2015-02-16T11:00:00Z,28.8667,-90.4833,10.0,8.2,190.0,8.8,'11111222,11111222,11111222' 
WAVCIS,ioos:station:WAVCIS:CSI06:1,2015-02-16T12:00:00Z,28.8667,-90.4833,10.0,8.8,180.0,9.8,'11111222,11111222,11111222' 
WAVCIS,ioos:station:WAVCIS:CSI06:1,2015-02-16T13:00:00Z,28.8667,-90.4833,10.0,10.3,180.0,10.8,'11111222,11111222,11111222' 
WAVCIS,ioos:station:WAVCIS:CSI06:1,2015-02-16T16:00:00Z,28.8667,-90.4833,10.0,9.3,200.0,9.8,'11111222,11111222,11111222' 
WAVCIS,ioos:station:WAVCIS:CSI06:1,2015-02-16T17:00:00Z,28.8667,-90.4833,10.0,8.2,210.0,9.3,'11111222,11111222,11111222' 
WAVCIS,ioos:station:WAVCIS:CSI06:1,2015-02-16T18:00:00Z,28.8667,-90.4833,10.0,7.7,210.0,8.2,'11111222,11111222,11111222' 
WAVCIS,ioos:station:WAVCIS:CSI06:1,2015-02-16T19:00:00Z,28.8667,-90.4833,10.0,9.3,210.0,10.3,'11111222,11111222,11111222' 
WAVCIS,ioos:station:WAVCIS:CSI06:1,2015-02-16T20:00:00Z,28.8667,-90.4833,10.0,9.8,210.0,10.8,'11111222,11111222,11111222' 
WAVCIS,ioos:station:WAVCIS:CSI06:1,2015-02-16T21:00:00Z,28.8667,-90.4833,10.0,7.2,210.0,9.3,'11111222,11111222,11111222' 
WAVCIS,ioos:station:WAVCIS:CSI06:1,2015-02-16T22:00:00Z,28.8667,-90.4833,10.0,8.2,210.0,10.3,'11111222,11111222,11111222' 
WAVCIS,ioos:station:WAVCIS:CSI06:1,2015-02-16T23:00:00Z,28.8667,-90.4833,10.0,5.7,220.0,8.8,'11111222,11111222,11111222' 
WAVCIS,ioos:station:WAVCIS:CSI06:1,2015-02-17T00:00:00Z,28.8667,-90.4833,10.0,3.1,230.0,6.2,'11111222,11111222,11111222' 
WAVCIS,ioos:station:WAVCIS:CSI06:1,2015-02-17T01:00:00Z,28.8667,-90.4833,10.0,3.1,230.0,5.1,'11111222,11111222,11111222' 
WAVCIS,ioos:station:WAVCIS:CSI06:1,2015-02-17T02:00:00Z,28.8667,-90.4833,10.0,3.6,240.0,6.7,'11111222,11111222,11111222' 
WAVCIS,ioos:station:WAVCIS:CSI06:1,2015-02-17T03:00:00Z,28.8667,-90.4833,10.0,11.8,330.0,13.9,'11111222,11111222,11111222' 
WAVCIS,ioos:station:WAVCIS:CSI06:1,2015-02-17T04:00:00Z,28.8667,-90.4833,10.0,7.7,350.0,10.8,'11111222,11111222,11111222' 
WAVCIS,ioos:station:WAVCIS:CSI06:1,2015-02-17T05:00:00Z,28.8667,-90.4833,10.0,7.2,360.0,11.3,'11111222,11144222,11111222' 
WAVCIS,ioos:station:WAVCIS:CSI06:1,2015-02-17T06:00:00Z,28.8667,-90.4833,10.0,8.2,360.0,13.4,'11111222,11144222,11111222' 
WAVCIS,ioos:station:WAVCIS:CSI06:1,2015-02-17T07:00:00Z,28.8667,-90.4833,10.0,8.2,360.0,12.4,'11111222,11144222,11111222' 
WAVCIS,ioos:station:WAVCIS:CSI06:1,2015-02-17T08:00:00Z,28.8667,-90.4833,10.0,11.3,10.0,16.0,'11111222,11111222,11111222' 
WAVCIS,ioos:station:WAVCIS:CSI06:1,2015-02-17T09:00:00Z,28.8667,-90.4833,10.0,9.8,10.0,14.9,'11111222,11111222,11111222' 
WAVCIS,ioos:station:WAVCIS:CSI06:1,2015-02-17T11:00:00Z,28.8667,-90.4833,10.0,10.3,30.0,12.4,'11111222,11111222,11111222' 
WAVCIS,ioos:station:WAVCIS:CSI06:1,2015-02-17T12:00:00Z,28.8667,-90.4833,10.0,8.2,40.0,10.8,'11111222,11111222,11111222' 
WAVCIS,ioos:station:WAVCIS:CSI06:1,2015-02-17T13:00:00Z,28.8667,-90.4833,10.0,10.8,20.0,12.9,'11111222,11111222,11111222' 
WAVCIS,ioos:station:WAVCIS:CSI06:1,2015-02-17T14:00:00Z,28.8667,-90.4833,10.0,9.3,10.0,12.9,'11111222,11111222,11111222' 
WAVCIS,ioos:station:WAVCIS:CSI06:1,2015-02-17T15:00:00Z,28.8667,-90.4833,10.0,8.8,30.0,11.8,'11111222,11111222,11111222' 
WAVCIS,ioos:station:WAVCIS:CSI06:1,2015-02-17T16:00:00Z,28.8667,-90.4833,10.0,11.3,20.0,14.4,'11111222,11111222,11111222' 
WAVCIS,ioos:station:WAVCIS:CSI06:1,2015-02-17T17:00:00Z,28.8667,-90.4833,10.0,9.8,20.0,12.9,'11111222,11111222,11111222' 
WAVCIS,ioos:station:WAVCIS:CSI06:1,2015-02-17T18:00:00Z,28.8667,-90.4833,10.0,7.2,30.0,9.8,'11111222,11111222,11111222' 
WAVCIS,ioos:station:WAVCIS:CSI06:1,2015-02-17T19:00:00Z,28.8667,-90.4833,10.0,7.7,20.0,10.8,'11111222,11111222,11111222' 
WAVCIS,ioos:station:WAVCIS:CSI06:1,2015-02-17T20:00:00Z,28.8667,-90.4833,10.0,6.7,10.0,10.3,'11111222,11111222,11111222' 
WAVCIS,ioos:station:WAVCIS:CSI06:1,2015-02-17T21:00:00Z,28.8667,-90.4833,10.0,7.2,20.0,10.8,'11111222,11111222,11111222' 
WAVCIS,ioos:station:WAVCIS:CSI06:1,2015-02-17T22:00:00Z,28.8667,-90.4833,10.0,6.2,360.0,9.8,'11111222,11144222,11111222' 